| time (UTC) | temp F | wind direction | speed MPH | gust MPH | rain 1hr in | rain 24hr in | rain mn in | humidity % | barometer mb |
| 20260510190505 | 63 | 213 | 0.0 | 0.0 | 0.00 | 0.03 | 0.03 | 32 | 1009.2 |
| 20260510185505 | 62 | 216 | 0.0 | 0.0 | 0.00 | 0.03 | 0.03 | 33 | 1009.0 |
| 20260510185006 | 62 | 212 | 0.0 | 0.0 | 0.00 | 0.03 | 0.03 | 33 | 1009.1 |
| 20260510184505 | 62 | 222 | 0.0 | 0.0 | 0.00 | 0.03 | 0.03 | 33 | 1009.0 |
| 20260510184006 | 62 | 223 | 0.0 | 0.0 | 0.00 | 0.03 | 0.03 | 34 | 1008.9 |
| 20260510183505 | 62 | 233 | 0.0 | 0.0 | 0.00 | 0.03 | 0.03 | 34 | 1008.9 |
| 20260510183006 | 62 | 212 | 0.0 | 0.0 | 0.00 | 0.03 | 0.03 | 33 | 1008.9 |
| 20260510182505 | 62 | 227 | 0.0 | 0.0 | 0.00 | 0.03 | 0.03 | 33 | 1008.9 |
| 20260510182006 | 62 | 236 | 0.0 | 0.0 | 0.00 | 0.03 | 0.03 | 34 | 1008.9 |
| 20260510181505 | 62 | 211 | 0.0 | 0.0 | 0.00 | 0.03 | 0.03 | 34 | 1008.8 |
| 20260510180506 | 62 | 215 | 0.0 | 0.0 | 0.00 | 0.03 | 0.03 | 35 | 1008.7 |
| 20260510180005 | 62 | 210 | 0.0 | 0.0 | 0.00 | 0.03 | 0.03 | 35 | 1008.6 |
| 20260510175505 | 62 | 229 | 0.0 | 0.0 | 0.00 | 0.03 | 0.03 | 34 | 1008.8 |
| 20260510175005 | 62 | 245 | 0.0 | 0.0 | 0.00 | 0.03 | 0.03 | 35 | 1008.7 |
| 20260510173505 | 61 | 245 | 0.0 | 0.0 | 0.00 | 0.03 | 0.03 | 34 | 1008.7 |
| 20260510173005 | 62 | 219 | 0.0 | 0.0 | 0.00 | 0.03 | 0.03 | 35 | 1008.8 |
| 20260510172006 | 62 | 214 | 0.0 | 0.0 | 0.00 | 0.03 | 0.03 | 35 | 1008.6 |
| 20260510171505 | 62 | 250 | 0.0 | 0.0 | 0.00 | 0.03 | 0.03 | 36 | 1008.8 |
| 20260510171006 | 61 | 225 | 0.0 | 0.0 | 0.00 | 0.03 | 0.03 | 36 | 1008.6 |
| 20260510170505 | 62 | 226 | 0.0 | 0.0 | 0.00 | 0.03 | 0.03 | 36 | 1008.6 |
| 20260510170005 | 61 | 228 | 0.0 | 0.0 | 0.00 | 0.03 | 0.03 | 37 | 1008.6 |
| 20260510165505 | 61 | 229 | 0.0 | 0.0 | 0.00 | 0.03 | 0.03 | 37 | 1008.5 |
| 20260510165006 | 61 | 241 | 0.0 | 0.0 | 0.00 | 0.03 | 0.03 | 38 | 1008.5 |
| 20260510164505 | 60 | 234 | 0.0 | 0.0 | 0.00 | 0.03 | 0.03 | 38 | 1008.4 |
| 20260510164005 | 61 | 224 | 0.0 | 0.0 | 0.00 | 0.03 | 0.03 | 37 | 1008.5 |
| 20260510163505 | 61 | 218 | 0.0 | 0.0 | 0.00 | 0.03 | 0.03 | 39 | 1008.4 |
| 20260510163006 | 61 | 235 | 0.0 | 0.0 | 0.00 | 0.03 | 0.03 | 38 | 1008.4 |
| 20260510162505 | 61 | 261 | 0.0 | 0.0 | 0.00 | 0.03 | 0.03 | 39 | 1008.3 |
| 20260510162005 | 61 | 241 | 0.0 | 0.0 | 0.00 | 0.03 | 0.03 | 39 | 1008.3 |
| 20260510161505 | 61 | 232 | 0.0 | 0.0 | 0.00 | 0.03 | 0.03 | 39 | 1008.3 |
| 20260510161006 | 60 | 250 | 0.0 | 0.0 | 0.00 | 0.03 | 0.03 | 40 | 1008.2 |
| 20260510160505 | 60 | 219 | 0.0 | 0.0 | 0.00 | 0.03 | 0.03 | 41 | 1008.2 |
| 20260510160005 | 60 | 226 | 0.0 | 0.0 | 0.00 | 0.03 | 0.03 | 42 | 1008.2 |
| 20260510155505 | 60 | 230 | 0.0 | 0.0 | 0.00 | 0.03 | 0.03 | 43 | 1008.3 |
| 20260510155006 | 60 | 239 | 0.0 | 0.0 | 0.00 | 0.03 | 0.03 | 44 | 1008.3 |
| 20260510153505 | 60 | 254 | 0.0 | 0.0 | 0.00 | 0.03 | 0.03 | 44 | 1008.1 |
| 20260510153005 | 60 | 235 | 0.0 | 0.0 | 0.00 | 0.03 | 0.03 | 44 | 1008.1 |
| 20260510152505 | 59 | 224 | 0.0 | 0.0 | 0.00 | 0.03 | 0.03 | 44 | 1008.1 |
| 20260510151505 | 59 | 235 | 0.0 | 0.0 | 0.00 | 0.03 | 0.03 | 45 | 1008.1 |
| 20260510151005 | 59 | 230 | 0.0 | 0.0 | 0.00 | 0.03 | 0.03 | 44 | 1008.2 |
| 20260510150505 | 59 | 235 | 0.0 | 0.0 | 0.00 | 0.03 | 0.03 | 45 | 1008.0 |
| 20260510145505 | 59 | 240 | 0.0 | 0.0 | 0.00 | 0.03 | 0.03 | 45 | 1008.1 |
| 20260510145005 | 59 | 246 | 0.0 | 0.0 | 0.00 | 0.03 | 0.03 | 46 | 1007.9 |
| 20260510144505 | 59 | 234 | 0.0 | 0.0 | 0.00 | 0.03 | 0.03 | 47 | 1008.1 |
| 20260510144005 | 59 | 240 | 0.0 | 0.0 | 0.00 | 0.03 | 0.03 | 49 | 1008.0 |
| 20260510143505 | 58 | 245 | 0.0 | 0.0 | 0.00 | 0.03 | 0.03 | 50 | 1008.1 |
| 20260510143005 | 58 | 236 | 0.0 | 0.0 | 0.00 | 0.03 | 0.03 | 51 | 1008.0 |
| 20260510142505 | 58 | 233 | 0.0 | 0.0 | 0.00 | 0.03 | 0.03 | 53 | 1007.9 |
| 20260510142006 | 57 | 249 | 0.0 | 0.0 | 0.00 | 0.03 | 0.03 | 53 | 1007.9 |
| 20260510141505 | 57 | 237 | 0.0 | 0.0 | 0.00 | 0.03 | 0.03 | 54 | 1007.8 |
| 20260510141005 | 56 | 242 | 0.0 | 0.0 | 0.00 | 0.03 | 0.03 | 56 | 1007.8 |
| 20260510140505 | 56 | 242 | 0.0 | 0.0 | 0.00 | 0.03 | 0.03 | 55 | 1007.7 |
| 20260510140005 | 56 | 250 | 0.0 | 0.0 | 0.00 | 0.03 | 0.03 | 55 | 1007.8 |
| 20260510135505 | 57 | 252 | 0.0 | 0.0 | 0.00 | 0.03 | 0.03 | 55 | 1007.6 |
| 20260510135006 | 57 | 249 | 0.0 | 0.0 | 0.00 | 0.03 | 0.03 | 59 | 1007.6 |
| 20260510134505 | 57 | 241 | 0.0 | 0.0 | 0.00 | 0.03 | 0.03 | 60 | 1007.6 |
| 20260510134006 | 57 | 230 | 0.0 | 0.0 | 0.00 | 0.03 | 0.03 | 61 | 1007.6 |
| 20260510133506 | 56 | 235 | 0.0 | 0.0 | 0.00 | 0.03 | 0.03 | 62 | 1007.6 |
| 20260510133005 | 56 | 227 | 0.0 | 0.0 | 0.00 | 0.03 | 0.03 | 61 | 1007.7 |
| 20260510132504 | 56 | 228 | 0.0 | 0.0 | 0.00 | 0.03 | 0.03 | 61 | 1007.6 |
| 20260510132005 | 56 | 238 | 0.0 | 0.0 | 0.00 | 0.03 | 0.03 | 62 | 1007.6 |
| 20260510131505 | 56 | 234 | 0.0 | 0.0 | 0.00 | 0.03 | 0.03 | 62 | 1007.6 |
| 20260510131005 | 56 | 238 | 0.0 | 0.0 | 0.00 | 0.03 | 0.03 | 61 | 1007.5 |
| 20260510130505 | 56 | 231 | 0.0 | 0.0 | 0.00 | 0.03 | 0.03 | 61 | 1007.4 |
| 20260510130005 | 56 | 232 | 0.0 | 0.0 | 0.00 | 0.03 | 0.03 | 64 | 1007.4 |
| 20260510125505 | 56 | 211 | 0.0 | 0.0 | 0.00 | 0.03 | 0.03 | 64 | 1007.3 |
| 20260510125006 | 56 | 219 | 0.0 | 0.0 | 0.00 | 0.03 | 0.03 | 65 | 1007.2 |
| 20260510124505 | 55 | 214 | 0.0 | 0.0 | 0.00 | 0.03 | 0.03 | 66 | 1007.1 |
| 20260510124006 | 55 | 219 | 0.0 | 0.0 | 0.00 | 0.03 | 0.03 | 67 | 1007.2 |
| 20260510122505 | 55 | 228 | 0.0 | 0.0 | 0.00 | 0.03 | 0.03 | 67 | 1006.9 |
| 20260510122006 | 55 | 233 | 0.0 | 0.0 | 0.00 | 0.03 | 0.03 | 69 | 1007.1 |
| 20260510121505 | 55 | 216 | 0.0 | 0.0 | 0.00 | 0.03 | 0.03 | 73 | 1007.0 |
| 20260510121005 | 55 | 219 | 0.0 | 0.0 | 0.00 | 0.03 | 0.03 | 78 | 1006.9 |
| 20260510120005 | 54 | 209 | 0.0 | 0.0 | 0.00 | 0.03 | 0.03 | 83 | 1006.8 |
| 20260510115006 | 53 | 210 | 0.0 | 0.0 | 0.00 | 0.03 | 0.03 | 83 | 1006.7 |
| 20260510114505 | 53 | 190 | 0.0 | 0.0 | 0.00 | 0.03 | 0.03 | 83 | 1006.5 |
| 20260510114006 | 53 | 205 | 0.0 | 0.0 | 0.00 | 0.03 | 0.03 | 83 | 1006.8 |
| 20260510113505 | 53 | 205 | 0.0 | 0.0 | 0.00 | 0.03 | 0.03 | 83 | 1006.7 |
| 20260510113005 | 53 | 190 | 0.0 | 0.0 | 0.00 | 0.03 | 0.03 | 83 | 1006.7 |
| 20260510112505 | 53 | 173 | 0.0 | 0.0 | 0.00 | 0.03 | 0.03 | 83 | 1006.5 |
| 20260510112005 | 53 | 176 | 0.0 | 0.0 | 0.00 | 0.03 | 0.03 | 83 | 1006.7 |
| 20260510111504 | 53 | 182 | 0.0 | 0.0 | 0.00 | 0.03 | 0.03 | 84 | 1006.6 |
| 20260510110505 | 52 | 175 | 0.0 | 0.0 | 0.00 | 0.03 | 0.03 | 84 | 1006.3 |
| 20260510110005 | 52 | 172 | 0.0 | 0.0 | 0.00 | 0.03 | 0.03 | 84 | 1006.2 |
| 20260510105505 | 52 | 155 | 0.0 | 0.0 | 0.00 | 0.03 | 0.03 | 83 | 1006.0 |
| 20260510105005 | 52 | 163 | 0.0 | 0.0 | 0.00 | 0.03 | 0.03 | 83 | 1006.0 |
| 20260510104505 | 52 | 166 | 0.0 | 0.0 | 0.00 | 0.03 | 0.03 | 83 | 1006.0 |
| 20260510104005 | 52 | 167 | 0.0 | 0.0 | 0.00 | 0.03 | 0.03 | 84 | 1005.9 |
| 20260510103505 | 52 | 159 | 0.0 | 0.0 | 0.00 | 0.03 | 0.03 | 83 | 1005.7 |
| 20260510103005 | 52 | 181 | 0.0 | 0.0 | 0.00 | 0.03 | 0.03 | 84 | 1005.7 |
| 20260510102504 | 51 | 173 | 0.0 | 0.0 | 0.00 | 0.03 | 0.03 | 84 | 1005.8 |
| 20260510102005 | 51 | 177 | 0.0 | 0.0 | 0.00 | 0.03 | 0.03 | 84 | 1005.7 |
| 20260510101505 | 51 | 188 | 0.0 | 0.0 | 0.00 | 0.03 | 0.03 | 84 | 1005.7 |
| 20260510101006 | 51 | 194 | 0.0 | 0.0 | 0.00 | 0.03 | 0.03 | 84 | 1005.7 |
| 20260510100505 | 51 | 194 | 0.0 | 0.0 | 0.00 | 0.03 | 0.03 | 84 | 1005.4 |
| 20260510100005 | 51 | 180 | 0.0 | 0.0 | 0.00 | 0.03 | 0.03 | 84 | 1005.3 |
| 20260510095504 | 51 | 194 | 0.0 | 0.0 | 0.00 | 0.03 | 0.03 | 84 | 1005.2 |
| 20260510095005 | 51 | 191 | 0.0 | 0.0 | 0.00 | 0.03 | 0.03 | 84 | 1005.2 |
| 20260510094504 | 50 | 186 | 0.0 | 0.0 | 0.00 | 0.03 | 0.03 | 84 | 1005.2 |
| 20260510094006 | 50 | 190 | 0.0 | 0.0 | 0.00 | 0.03 | 0.03 | 84 | 1005.1 |
| 20260510093505 | 50 | 187 | 0.0 | 0.0 | 0.00 | 0.03 | 0.03 | 83 | 1005.0 |
| 20260510093006 | 50 | 186 | 0.0 | 0.0 | 0.00 | 0.03 | 0.03 | 83 | 1005.0 |
| 20260510092505 | 50 | 173 | 0.0 | 0.0 | 0.00 | 0.03 | 0.03 | 83 | 1004.9 |
| 20260510092005 | 51 | 188 | 0.0 | 0.0 | 0.00 | 0.03 | 0.03 | 83 | 1005.0 |
| 20260510091504 | 51 | 195 | 0.0 | 0.0 | 0.00 | 0.03 | 0.03 | 83 | 1005.0 |
| 20260510091005 | 51 | 196 | 0.0 | 0.0 | 0.00 | 0.03 | 0.03 | 82 | 1004.8 |
| 20260510090505 | 51 | 180 | 0.0 | 0.0 | 0.00 | 0.03 | 0.03 | 83 | 1004.8 |
| 20260510090005 | 51 | 185 | 0.0 | 0.0 | 0.00 | 0.03 | 0.03 | 82 | 1004.6 |
| 20260510085505 | 51 | 167 | 0.0 | 0.0 | 0.00 | 0.03 | 0.03 | 83 | 1004.4 |
| 20260510084504 | 51 | 175 | 0.0 | 0.0 | 0.00 | 0.03 | 0.03 | 83 | 1004.7 |
| 20260510084005 | 51 | 166 | 0.0 | 0.0 | 0.00 | 0.03 | 0.03 | 83 | 1004.6 |
| 20260510083506 | 51 | 166 | 0.0 | 0.0 | 0.00 | 0.03 | 0.03 | 83 | 1004.5 |
| 20260510083005 | 51 | 172 | 0.0 | 0.0 | 0.00 | 0.03 | 0.03 | 83 | 1004.5 |
| 20260510082504 | 51 | 168 | 0.0 | 0.0 | 0.00 | 0.03 | 0.03 | 83 | 1004.5 |
| 20260510082005 | 51 | 172 | 0.0 | 0.0 | 0.00 | 0.03 | 0.03 | 83 | 1004.6 |
| 20260510081005 | 51 | 181 | 0.0 | 0.0 | 0.00 | 0.03 | 0.03 | 83 | 1004.6 |
| 20260510080505 | 51 | 166 | 0.0 | 0.0 | 0.00 | 0.03 | 0.03 | 82 | 1004.7 |
| 20260510080005 | 51 | 177 | 0.0 | 0.0 | 0.00 | 0.03 | 0.03 | 83 | 1004.6 |
| 20260510075505 | 51 | 169 | 0.0 | 0.0 | 0.00 | 0.03 | 0.03 | 82 | 1004.7 |
| 20260510075005 | 52 | 174 | 0.0 | 0.0 | 0.00 | 0.03 | 0.03 | 82 | 1004.7 |
| 20260510074504 | 52 | 185 | 0.0 | 0.0 | 0.00 | 0.03 | 0.03 | 82 | 1004.5 |
| 20260510074005 | 52 | 179 | 0.0 | 0.0 | 0.00 | 0.03 | 0.03 | 82 | 1004.6 |
| 20260510073505 | 52 | 170 | 0.0 | 0.0 | 0.00 | 0.03 | 0.03 | 82 | 1004.6 |
| 20260510073005 | 52 | 170 | 0.0 | 0.0 | 0.00 | 0.03 | 0.03 | 82 | 1004.5 |
| 20260510072504 | 52 | 174 | 0.0 | 0.0 | 0.00 | 0.03 | 0.03 | 82 | 1004.3 |
| 20260510072005 | 52 | 173 | 0.0 | 0.0 | 0.01 | 0.03 | 0.03 | 82 | 1004.4 |
| 20260510071505 | 52 | 175 | 0.0 | 0.0 | 0.01 | 0.03 | 0.03 | 82 | 1004.3 |
| 20260510071005 | 52 | 164 | 0.0 | 0.0 | 0.01 | 0.03 | 0.03 | 82 | 1004.3 |
| 20260510070505 | 52 | 163 | 0.0 | 0.0 | 0.01 | 0.03 | 0.03 | 82 | 1004.3 |
| 20260510070005 | 52 | 159 | 0.0 | 0.0 | 0.01 | 0.03 | 0.03 | 82 | 1004.2 |
| 20260510065504 | 52 | 157 | 0.0 | 0.0 | 0.01 | 0.03 | 0.03 | 82 | 1004.2 |
| 20260510065005 | 52 | 158 | 0.0 | 0.0 | 0.01 | 0.03 | 0.03 | 82 | 1004.2 |
| 20260510064505 | 52 | 165 | 0.0 | 0.0 | 0.02 | 0.03 | 0.03 | 82 | 1004.0 |
| 20260510064005 | 52 | 160 | 0.0 | 0.0 | 0.02 | 0.03 | 0.03 | 82 | 1004.0 |
| 20260510063505 | 52 | 160 | 0.0 | 0.0 | 0.03 | 0.03 | 0.03 | 82 | 1004.1 |
| 20260510063005 | 52 | 154 | 0.0 | 0.0 | 0.03 | 0.03 | 0.03 | 82 | 1004.1 |
| 20260510062505 | 52 | 162 | 0.0 | 0.0 | 0.03 | 0.03 | 0.03 | 81 | 1004.3 |
| 20260510062005 | 52 | 151 | 0.0 | 0.0 | 0.02 | 0.02 | 0.02 | 81 | 1004.3 |
| 20260510061005 | 52 | 157 | 0.0 | 0.0 | 0.02 | 0.02 | 0.02 | 81 | 1004.3 |
| 20260510060505 | 52 | 159 | 0.0 | 0.0 | 0.02 | 0.02 | 0.02 | 81 | 1004.3 |
| 20260510060006 | 52 | 153 | 0.0 | 0.0 | 0.02 | 0.02 | 0.02 | 80 | 1004.1 |
| 20260510055505 | 52 | 152 | 0.0 | 0.0 | 0.02 | 0.02 | 0.02 | 80 | 1004.3 |
| 20260510055005 | 52 | 162 | 0.0 | 0.0 | 0.02 | 0.02 | 0.02 | 79 | 1004.4 |
| 20260510054504 | 52 | 169 | 0.0 | 0.0 | 0.01 | 0.01 | 0.01 | 78 | 1004.5 |
| 20260510053005 | 52 | 176 | 0.0 | 0.0 | 0.00 | 0.00 | 0.00 | 75 | 1004.4 |
| 20260510052504 | 53 | 170 | 0.0 | 0.0 | 0.00 | 0.00 | 0.00 | 75 | 1004.4 |
| 20260510052005 | 53 | 174 | 0.0 | 0.0 | 0.00 | 0.00 | 0.00 | 74 | 1004.3 |
| 20260510051504 | 53 | 169 | 0.0 | 0.0 | 0.00 | 0.00 | 0.00 | 74 | 1004.4 |
| 20260510051006 | 53 | 153 | 0.0 | 0.0 | 0.00 | 0.00 | 0.00 | 73 | 1004.2 |
| 20260510050505 | 53 | 151 | 0.0 | 0.0 | 0.00 | 0.00 | 0.00 | 73 | 1004.2 |
| 20260510050012 | 53 | 156 | 0.0 | 0.0 | 0.00 | 0.00 | 0.00 | 73 | 1004.2 |
| 20260510045512 | 53 | 162 | 0.0 | 0.0 | 0.00 | 0.00 | 0.00 | 73 | 1004.2 |
| 20260510045012 | 53 | 148 | 0.0 | 0.0 | 0.00 | 0.00 | 0.00 | 73 | 1004.3 |
| 20260510044511 | 53 | 154 | 0.0 | 0.0 | 0.00 | 0.00 | 0.00 | 73 | 1004.5 |
| 20260510044011 | 53 | 143 | 0.0 | 0.0 | 0.00 | 0.00 | 0.00 | 73 | 1004.2 |
| 20260510043511 | 52 | 150 | 0.0 | 0.0 | 0.00 | 0.00 | 0.00 | 73 | 1004.1 |
| 20260510043012 | 52 | 143 | 0.0 | 0.0 | 0.00 | 0.00 | 0.00 | 74 | 1004.0 |
| 20260510042511 | 52 | 142 | 0.0 | 0.0 | 0.00 | 0.00 | 0.00 | 74 | 1004.0 |
| 20260510042012 | 52 | 134 | 0.0 | 0.0 | 0.00 | 0.00 | 0.00 | 74 | 1003.9 |
| 20260510041511 | 51 | 137 | 0.0 | 0.0 | 0.00 | 0.00 | 0.00 | 74 | 1004.0 |
| 20260510041011 | 51 | 137 | 0.0 | 0.0 | 0.00 | 0.00 | 0.00 | 73 | 1004.0 |
| 20260510040512 | 51 | 134 | 0.0 | 0.0 | 0.00 | 0.00 | 0.00 | 73 | 1003.9 |
| 20260510040011 | 51 | 132 | 0.0 | 0.0 | 0.00 | 0.00 | 0.00 | 73 | 1004.0 |
| 20260510035012 | 51 | 131 | 0.0 | 0.0 | 0.00 | 0.00 | 0.00 | 73 | 1004.0 |
| 20260510034511 | 51 | 133 | 0.0 | 0.0 | 0.00 | 0.00 | 0.00 | 73 | 1004.1 |
| 20260510033512 | 51 | 139 | 0.0 | 0.0 | 0.00 | 0.00 | 0.00 | 72 | 1004.2 |
| 20260510032511 | 51 | 132 | 0.0 | 0.0 | 0.00 | 0.00 | 0.00 | 72 | 1004.3 |
| 20260510032011 | 51 | 134 | 0.0 | 0.0 | 0.00 | 0.00 | 0.00 | 72 | 1004.3 |
| 20260510031511 | 51 | 118 | 0.0 | 0.0 | 0.00 | 0.00 | 0.00 | 72 | 1004.3 |
| 20260510031012 | 51 | 117 | 0.0 | 0.0 | 0.00 | 0.00 | 0.00 | 71 | 1004.2 |
| 20260510030511 | 52 | 120 | 0.0 | 0.0 | 0.00 | 0.00 | 0.00 | 71 | 1004.3 |
| 20260510030011 | 52 | 125 | 0.0 | 0.0 | 0.00 | 0.00 | 0.00 | 71 | 1004.5 |
| 20260510025511 | 52 | 145 | 0.0 | 0.0 | 0.00 | 0.00 | 0.00 | 70 | 1004.6 |
| 20260510025011 | 52 | 145 | 0.0 | 0.0 | 0.00 | 0.00 | 0.00 | 70 | 1004.7 |
| 20260510024511 | 52 | 148 | 0.0 | 0.0 | 0.00 | 0.00 | 0.00 | 70 | 1004.8 |
| 20260510024011 | 52 | 151 | 0.0 | 0.0 | 0.00 | 0.00 | 0.00 | 70 | 1004.8 |
| 20260510023512 | 52 | 146 | 0.0 | 0.0 | 0.00 | 0.00 | 0.00 | 70 | 1004.8 |
| 20260510023011 | 52 | 152 | 0.0 | 0.0 | 0.00 | 0.00 | 0.00 | 70 | 1004.9 |
| 20260510022511 | 53 | 147 | 0.0 | 0.0 | 0.00 | 0.00 | 0.00 | 70 | 1005.1 |
| 20260510022011 | 53 | 147 | 0.0 | 0.0 | 0.00 | 0.00 | 0.00 | 70 | 1005.1 |
| 20260510021511 | 53 | 152 | 0.0 | 0.0 | 0.00 | 0.00 | 0.00 | 71 | 1005.0 |
| 20260510020511 | 53 | 148 | 0.0 | 0.0 | 0.00 | 0.00 | 0.00 | 71 | 1005.0 |
| 20260510020011 | 53 | 151 | 0.0 | 0.0 | 0.00 | 0.00 | 0.00 | 71 | 1005.2 |
| 20260510015510 | 53 | 159 | 0.0 | 0.0 | 0.00 | 0.00 | 0.00 | 71 | 1005.3 |
| 20260510015011 | 53 | 161 | 0.0 | 0.0 | 0.00 | 0.00 | 0.00 | 71 | 1005.2 |
| 20260510013511 | 53 | 143 | 0.0 | 0.0 | 0.00 | 0.00 | 0.00 | 70 | 1005.1 |
| 20260510013011 | 53 | 157 | 0.0 | 0.0 | 0.00 | 0.00 | 0.00 | 70 | 1005.1 |
| 20260510012012 | 53 | 153 | 0.0 | 0.0 | 0.00 | 0.00 | 0.00 | 69 | 1005.4 |
| 20260510011511 | 53 | 143 | 0.0 | 0.0 | 0.00 | 0.00 | 0.00 | 69 | 1005.5 |
| 20260510011012 | 53 | 151 | 0.0 | 0.0 | 0.00 | 0.00 | 0.00 | 68 | 1005.2 |
| 20260510010511 | 53 | 143 | 0.0 | 0.0 | 0.00 | 0.00 | 0.00 | 68 | 1005.3 |
| 20260510010011 | 53 | 137 | 0.0 | 0.0 | 0.00 | 0.00 | 0.00 | 68 | 1005.1 |
| 20260510005511 | 53 | 141 | 0.0 | 0.0 | 0.00 | 0.00 | 0.00 | 67 | 1005.1 |
| 20260510005011 | 54 | 147 | 0.0 | 0.0 | 0.00 | 0.00 | 0.00 | 67 | 1005.1 |
| 20260510004511 | 54 | 153 | 0.0 | 0.0 | 0.00 | 0.00 | 0.00 | 66 | 1005.3 |
| 20260510003511 | 54 | 144 | 0.0 | 0.0 | 0.00 | 0.00 | 0.00 | 66 | 1005.1 |
| 20260510002511 | 54 | 155 | 0.0 | 0.0 | 0.00 | 0.00 | 0.00 | 65 | 1005.2 |
| 20260510001511 | 54 | 139 | 0.0 | 0.0 | 0.00 | 0.00 | 0.00 | 65 | 1005.3 |
| 20260510001011 | 54 | 138 | 0.0 | 0.0 | 0.00 | 0.00 | 0.00 | 64 | 1005.1 |
| 20260510000511 | 54 | 140 | 0.0 | 0.0 | 0.00 | 0.00 | 0.00 | 64 | 1005.1 |
| 20260509235511 | 54 | 143 | 0.0 | 0.0 | 0.00 | 0.00 | 0.00 | 63 | 1005.2 |
| 20260509235011 | 55 | 155 | 0.0 | 0.0 | 0.00 | 0.00 | 0.00 | 63 | 1005.1 |
| 20260509234511 | 55 | 146 | 0.0 | 0.0 | 0.00 | 0.00 | 0.00 | 63 | 1005.1 |
| 20260509234011 | 55 | 150 | 0.0 | 0.0 | 0.00 | 0.00 | 0.00 | 63 | 1005.1 |
| 20260509233511 | 55 | 148 | 0.0 | 0.0 | 0.00 | 0.00 | 0.00 | 62 | 1005.0 |
| 20260509232511 | 55 | 151 | 0.0 | 0.0 | 0.00 | 0.00 | 0.00 | 61 | 1005.2 |
| 20260509232011 | 55 | 144 | 0.0 | 0.0 | 0.00 | 0.00 | 0.00 | 60 | 1005.4 |
| 20260509231511 | 56 | 150 | 0.0 | 0.0 | 0.00 | 0.00 | 0.00 | 59 | 1005.2 |
| 20260509231012 | 56 | 147 | 0.0 | 0.0 | 0.00 | 0.00 | 0.00 | 58 | 1005.2 |
| 20260509230011 | 57 | 160 | 0.0 | 0.0 | 0.00 | 0.00 | 0.00 | 56 | 1005.4 |
| 20260509224511 | 57 | 128 | 0.0 | 0.0 | 0.00 | 0.00 | 0.00 | 54 | 1005.5 |
| 20260509224011 | 57 | 143 | 0.0 | 0.0 | 0.00 | 0.00 | 0.00 | 53 | 1005.4 |
| 20260509223511 | 58 | 131 | 0.0 | 0.0 | 0.00 | 0.00 | 0.00 | 53 | 1005.4 |
| 20260509223012 | 58 | 156 | 0.0 | 0.0 | 0.00 | 0.00 | 0.00 | 53 | 1005.3 |
| 20260509222511 | 58 | 160 | 0.0 | 0.0 | 0.00 | 0.00 | 0.00 | 53 | 1005.3 |
| 20260509222011 | 58 | 155 | 0.0 | 0.0 | 0.00 | 0.00 | 0.00 | 52 | 1005.3 |
| 20260509221511 | 58 | 142 | 0.0 | 0.0 | 0.00 | 0.00 | 0.00 | 52 | 1005.3 |
| 20260509221011 | 59 | 145 | 0.0 | 0.0 | 0.00 | 0.00 | 0.00 | 52 | 1005.4 |
| 20260509220011 | 59 | 163 | 0.0 | 0.0 | 0.00 | 0.00 | 0.00 | 51 | 1005.3 |
| 20260509215511 | 59 | 140 | 0.0 | 0.0 | 0.00 | 0.00 | 0.00 | 51 | 1005.4 |
| 20260509215011 | 59 | 159 | 0.0 | 0.0 | 0.00 | 0.00 | 0.00 | 49 | 1005.4 |
| 20260509214511 | 59 | 156 | 0.0 | 0.0 | 0.00 | 0.00 | 0.00 | 49 | 1005.4 |
| 20260509214012 | 60 | 144 | 0.0 | 0.0 | 0.00 | 0.00 | 0.00 | 48 | 1005.6 |
| 20260509213511 | 60 | 140 | 0.0 | 0.0 | 0.00 | 0.00 | 0.00 | 48 | 1005.5 |
| 20260509213011 | 60 | 134 | 0.0 | 0.0 | 0.00 | 0.00 | 0.00 | 47 | 1005.5 |
| 20260509212510 | 60 | 147 | 0.0 | 0.0 | 0.00 | 0.00 | 0.00 | 46 | 1005.6 |
| 20260509212011 | 60 | 143 | 0.0 | 0.0 | 0.00 | 0.00 | 0.00 | 45 | 1005.5 |
| 20260509211012 | 61 | 152 | 0.0 | 0.0 | 0.00 | 0.00 | 0.00 | 44 | 1005.5 |
| 20260509210011 | 61 | 158 | 0.0 | 0.0 | 0.00 | 0.00 | 0.00 | 42 | 1005.6 |
| 20260509205511 | 62 | 157 | 0.0 | 0.0 | 0.00 | 0.00 | 0.00 | 42 | 1005.7 |
| 20260509204511 | 62 | 164 | 0.0 | 0.0 | 0.00 | 0.00 | 0.00 | 42 | 1005.4 |
| 20260509204011 | 61 | 146 | 0.0 | 0.0 | 0.00 | 0.00 | 0.00 | 42 | 1005.4 |
| 20260509203511 | 62 | 155 | 0.0 | 0.0 | 0.00 | 0.00 | 0.00 | 41 | 1005.5 |
| 20260509203011 | 62 | 149 | 0.0 | 0.0 | 0.00 | 0.00 | 0.00 | 41 | 1005.6 |
| 20260509202510 | 62 | 150 | 0.0 | 0.0 | 0.00 | 0.00 | 0.00 | 41 | 1005.6 |
| 20260509202011 | 62 | 156 | 0.0 | 0.0 | 0.00 | 0.00 | 0.00 | 42 | 1005.6 |
| 20260509201511 | 62 | 141 | 0.0 | 0.0 | 0.00 | 0.00 | 0.00 | 42 | 1005.6 |
| 20260509201011 | 61 | 145 | 0.0 | 0.0 | 0.00 | 0.00 | 0.00 | 44 | 1005.7 |
| 20260509195510 | 62 | 169 | 0.0 | 0.0 | 0.00 | 0.00 | 0.00 | 41 | 1005.8 |
| 20260509195011 | 62 | 176 | 0.0 | 0.0 | 0.00 | 0.00 | 0.00 | 41 | 1005.9 |
| 20260509194511 | 62 | 182 | 0.0 | 0.0 | 0.00 | 0.00 | 0.00 | 40 | 1006.0 |
| 20260509194011 | 62 | 180 | 0.0 | 0.0 | 0.00 | 0.00 | 0.00 | 40 | 1005.9 |
| 20260509193511 | 62 | 161 | 0.0 | 0.0 | 0.00 | 0.00 | 0.00 | 40 | 1006.0 |
| 20260509193011 | 62 | 154 | 0.0 | 0.0 | 0.00 | 0.00 | 0.00 | 40 | 1005.9 |
| 20260509192511 | 62 | 180 | 0.0 | 0.0 | 0.00 | 0.00 | 0.00 | 37 | 1006.0 |
| 20260509192011 | 63 | 171 | 0.0 | 0.0 | 0.00 | 0.00 | 0.00 | 36 | 1005.9 |
| 20260509191510 | 63 | 170 | 0.0 | 0.0 | 0.00 | 0.00 | 0.00 | 37 | 1005.9 |
| 20260509191011 | 63 | 152 | 0.0 | 0.0 | 0.00 | 0.00 | 0.00 | 37 | 1006.0 |